Location: Chiroubles
(46.1812°N, 4.6660°E)
Time: 02:12:31
(UTC+00:00)

Tiros 1 - Pass Details

Date: 27 November 2020
Orbit: 630 x 663 km, 48.4° (Epoch: 16 January)

Event Time Altitude Azimuth Distance (km) Brightness Sun altitude
Rises 19:24:08 0° 284° (WNW) 2,986 11.6 -34.9°
Reaches altitude 10° 19:26:30 10° 286° (WNW) 2,069 10.5 -35.3°
Enters shadow 19:28:09 22° 288° (WNW) 1,447 9.5 -35.6°
